Date String (YYYY-MM-DD hh:mm:ss) UTC,Instrument flags,absolute air pressure of the measurement (hPa),sample flow rate (lpm),inlet stack bypass flow (lpm),air temperature of the measurement (°C),ambient temperature measured by the external sensor (°C),aerosol sample conditioner tube jacket temperature (°C),OPC LED temperature (°C),internal box temperature (°C),relative humidity of the measurement (%),span deviation,mass concentration of particles derived from Lorenz-Mie calculation of OPC scattering (μg/m³),mass concentration of particles derived from Lorenz-Mie calculation of OPC scattering (μg/m³),mass concentration of particles derived from Lorenz-Mie calculation of OPC scattering (μg/m³)
DateTimeUTC,F1_M11,P_M11,Q1_M11,Q2_M11,T1_M11,T2_M11,T3_M11,T4_M11,T5_M11,U1_M11,ZSPAN_M11,X0_M11,X2_M11,X1_M11
2023-12-02 23:00:00,SystemResetWarning,0820.6,5.00,000.00,018.9,018.1,000.0,027.3,020.0,9.3,0000.0,0003.84,0000.68,0000.44
2023-12-02 23:01:00,SystemResetWarning,0820.7,5.00,000.00,018.9,018.1,000.0,027.3,020.0,9.3,0000.0,0003.63,0000.65,0000.44
2023-12-02 23:02:00,SystemResetWarning,0820.6,5.00,000.00,018.9,018.1,000.0,027.3,020.0,9.3,0000.0,0003.61,0000.64,0000.44
2023-12-02 23:03:00,SystemResetWarning,0820.6,5.00,000.00,018.9,018.1,000.0,027.3,020.0,9.3,0000.0,0003.29,0000.61,0000.44
2023-12-02 23:04:00,SystemResetWarning,0820.7,5.00,000.00,018.9,018.1,000.0,027.3,020.0,9.2,0000.0,0002.44,0000.59,0000.43
2023-12-02 23:05:00,SystemResetWarning,0820.6,5.00,000.00,018.9,018.1,000.0,027.3,020.0,9.5,0000.0,0002.05,0000.62,0000.43
2023-12-02 23:06:00,SystemResetWarning,0820.7,5.00,000.00,018.9,018.0,000.0,027.3,020.0,9.2,0000.0,0001.72,0000.63,0000.43
2023-12-02 23:07:00,SystemResetWarning,0820.7,5.01,000.00,018.9,018.0,000.0,027.3,020.0,9.0,0000.0,0001.18,0000.63,0000.44
2023-12-02 23:08:00,SystemResetWarning,0820.7,5.00,000.00,018.9,018.0,000.0,027.3,020.0,8.9,0000.0,0001.17,0000.63,0000.43
2023-12-02 23:09:00,SystemResetWarning,0820.8,5.01,000.00,018.9,018.0,000.0,027.3,020.0,8.8,0000.0,0001.40,0000.63,0000.42
2023-12-02 23:10:00,SystemResetWarning,0820.8,5.00,000.00,018.9,018.0,000.0,027.3,020.0,9.2,0000.0,0002.12,0000.63,0000.41
2023-12-02 23:11:00,SystemResetWarning,0820.7,5.00,000.00,018.9,018.0,000.0,027.3,020.0,9.4,0000.0,0003.00,0000.65,0000.42
2023-12-02 23:12:00,SystemResetWarning,0820.8,4.99,000.00,018.9,018.0,000.0,027.3,020.0,9.1,0000.0,0003.02,0000.65,0000.41
2023-12-02 23:13:00,SystemResetWarning,0820.7,5.00,000.00,018.9,018.0,000.0,027.3,020.0,9.2,0000.0,0003.16,0000.70,0000.41
2023-12-02 23:14:00,SystemResetWarning,0820.7,5.01,000.00,018.9,018.0,000.0,027.3,020.0,9.1,0000.0,0003.31,0000.72,0000.41
2023-12-02 23:15:00,SystemResetWarning,0820.8,5.01,000.00,018.9,018.0,000.0,027.3,020.0,9.2,0000.0,0003.24,0000.70,0000.40
2023-12-02 23:16:00,SystemResetWarning,0820.7,5.00,000.00,018.9,018.0,000.0,027.3,020.0,9.5,0000.0,0003.14,0000.66,0000.40
2023-12-02 23:17:00,SystemResetWarning,0820.6,5.00,000.00,018.9,018.0,000.0,027.3,020.0,9.4,0000.0,0003.15,0000.66,0000.40
2023-12-02 23:18:00,SystemResetWarning,0820.6,5.00,000.00,018.9,018.0,000.0,027.3,020.0,9.6,0000.0,0003.12,0000.66,0000.40
2023-12-02 23:19:00,SystemResetWarning,0820.7,5.00,000.00,018.9,018.0,000.0,027.3,020.0,9.4,0000.0,0004.75,0000.69,0000.41
2023-12-02 23:20:00,SystemResetWarning,0820.8,5.00,000.00,018.9,018.0,000.0,027.3,020.0,9.4,0000.0,0005.01,0000.71,0000.42
2023-12-02 23:21:00,SystemResetWarning,0820.8,5.01,000.00,018.9,018.0,000.0,027.3,020.0,9.6,0000.0,0004.29,0000.69,0000.41
2023-12-02 23:22:00,SystemResetWarning,0820.9,5.00,000.00,018.9,018.0,000.0,027.3,020.0,9.1,0000.0,0003.19,0000.69,0000.42
2023-12-02 23:23:00,SystemResetWarning,0820.7,5.00,000.00,018.9,018.0,000.0,027.3,020.0,9.4,0000.0,0003.26,0000.71,0000.42
2023-12-02 23:24:00,SystemResetWarning,0820.7,5.00,000.00,018.9,018.0,000.0,027.2,020.0,9.4,0000.0,0003.27,0000.69,0000.42
2023-12-02 23:25:00,SystemResetWarning,0820.6,4.99,000.00,018.9,017.9,000.0,027.2,020.0,9.6,0000.0,0003.24,0000.68,0000.43
2023-12-02 23:26:00,SystemResetWarning,0820.7,5.00,000.00,018.9,017.9,000.0,027.3,020.0,9.2,0000.0,0003.55,0000.74,0000.44
2023-12-02 23:27:00,SystemResetWarning,0820.6,5.00,000.00,018.9,017.9,000.0,027.3,020.0,9.2,0000.0,0003.84,0000.77,0000.44
2023-12-02 23:28:00,SystemResetWarning,0820.7,5.00,000.00,018.9,017.9,000.0,027.3,020.0,9.1,0000.0,0003.87,0000.77,0000.43
2023-12-02 23:29:00,SystemResetWarning,0820.7,5.00,000.00,018.9,017.9,000.0,027.3,020.0,9.1,0000.0,0003.87,0000.76,0000.43
2023-12-02 23:30:00,SystemResetWarning,0820.7,5.00,000.00,018.9,017.9,000.0,027.3,020.0,9.1,0000.0,0002.12,0000.72,0000.43
2023-12-02 23:31:00,SystemResetWarning,0820.7,5.00,000.00,018.9,017.8,000.0,027.3,020.0,9.3,0000.0,0001.82,0000.70,0000.43
2023-12-02 23:32:00,SystemResetWarning,0820.7,5.00,000.00,018.9,017.9,000.0,027.3,020.0,9.6,0000.0,0001.86,0000.71,0000.44
2023-12-02 23:33:00,SystemResetWarning,0820.8,5.00,000.00,018.9,017.9,000.0,027.3,020.0,9.7,0000.0,0001.87,0000.69,0000.44
2023-12-02 23:34:00,SystemResetWarning,0820.7,5.01,000.00,018.8,017.8,000.0,027.2,020.0,9.6,0000.0,0001.86,0000.68,0000.43
2023-12-02 23:35:00,SystemResetWarning,0820.7,5.01,000.00,018.8,017.8,000.0,027.2,020.0,9.7,0000.0,0001.95,0000.71,0000.43
2023-12-02 23:36:00,SystemResetWarning,0820.8,5.00,000.00,018.8,017.8,000.0,027.3,020.0,9.8,0000.0,0001.85,0000.71,0000.43
2023-12-02 23:37:00,SystemResetWarning,0820.7,5.00,000.00,018.8,017.8,000.0,027.3,020.0,9.7,0000.0,0001.55,0000.65,0000.42
2023-12-02 23:38:00,SystemResetWarning,0820.6,5.00,000.00,018.8,017.8,000.0,027.3,020.0,9.6,0000.0,0001.25,0000.61,0000.42
2023-12-02 23:39:00,SystemResetWarning,0820.7,5.00,000.00,018.8,017.8,000.0,027.3,020.0,9.7,0000.0,0001.41,0000.64,0000.42
2023-12-02 23:40:00,SystemResetWarning,0820.8,5.00,000.00,018.8,017.8,000.0,027.3,020.0,9.7,0000.0,0001.53,0000.65,0000.42
2023-12-02 23:41:00,SystemResetWarning,0820.7,5.00,000.00,018.8,017.8,000.0,027.3,020.0,9.8,0000.0,0002.84,0000.66,0000.41
2023-12-02 23:42:00,SystemResetWarning,0820.7,5.00,000.00,018.8,017.8,000.0,027.3,020.0,9.8,0000.0,0002.95,0000.69,0000.40
2023-12-02 23:43:00,SystemResetWarning,0820.6,5.00,000.00,018.8,017.8,000.0,027.3,020.0,9.5,0000.0,0003.05,0000.70,0000.40
2023-12-02 23:44:00,SystemResetWarning,0820.6,5.00,000.00,018.8,017.8,000.0,027.3,020.0,9.6,0000.0,0002.96,0000.69,0000.40
2023-12-02 23:45:00,SystemResetWarning,0820.6,5.00,000.00,018.8,017.8,000.0,027.3,020.0,9.5,0000.0,0002.94,0000.69,0000.40
2023-12-02 23:46:00,SystemResetWarning,0820.6,5.00,000.00,018.8,017.8,000.0,027.3,020.0,9.6,0000.0,0002.78,0000.64,0000.39
2023-12-02 23:47:00,SystemResetWarning,0820.6,4.99,000.00,018.8,017.8,000.0,027.3,020.0,9.6,0000.0,0002.89,0000.65,0000.39
2023-12-02 23:48:00,SystemResetWarning,0820.7,5.01,000.00,018.8,017.7,000.0,027.3,020.0,9.5,0000.0,0003.07,0000.68,0000.39
2023-12-02 23:49:00,SystemResetWarning,0820.7,5.01,000.00,018.8,017.8,000.0,027.3,020.0,9.2,0000.0,0003.09,0000.69,0000.38
2023-12-02 23:50:00,SystemResetWarning,0820.8,5.01,000.00,018.8,017.8,000.0,027.3,020.0,9.2,0000.0,0002.99,0000.66,0000.38
2023-12-02 23:51:00,SystemResetWarning,0820.9,5.00,000.00,018.8,017.8,000.0,027.3,020.0,9.2,0000.0,0002.94,0000.65,0000.39
2023-12-02 23:52:00,SystemResetWarning,0820.8,5.00,000.00,018.8,017.8,000.0,027.3,020.0,9.3,0000.0,0002.18,0000.65,0000.39
2023-12-02 23:53:00,SystemResetWarning,0820.8,5.00,000.00,018.8,017.8,000.0,027.3,020.0,9.5,0000.0,0001.70,0000.66,0000.40
2023-12-02 23:54:00,SystemResetWarning,0820.7,4.99,000.00,018.8,017.8,000.0,027.3,020.0,9.6,0000.0,0001.59,0000.66,0000.40
2023-12-02 23:55:00,SystemResetWarning,0820.6,5.00,000.00,018.8,017.8,000.0,027.3,020.0,9.4,0000.0,0001.66,0000.67,0000.39
2023-12-02 23:56:00,SystemResetWarning,0820.6,5.00,000.00,018.8,017.8,000.0,027.3,020.0,9.7,0000.0,0001.67,0000.67,0000.39
2023-12-02 23:57:00,SystemResetWarning,0820.6,5.00,000.00,018.8,017.8,000.0,027.3,020.0,9.8,0000.0,0001.61,0000.66,0000.40
2023-12-02 23:58:00,SystemResetWarning,0820.6,5.00,000.00,018.8,017.8,000.0,027.3,020.0,9.8,0000.0,0001.46,0000.64,0000.40
2023-12-02 23:59:00,SystemResetWarning,0820.6,5.00,000.00,018.8,017.8,000.0,027.3,020.0,9.9,0000.0,0001.28,0000.63,0000.42
